EW4918 Weather Reports


Display with metric or nautical units.
time (UTC)temp
F
wind
direction
speed
MPH
gust
MPH
rain 1hr
in
rain 24hr
in
rain mn
in
humidity
%
barometer
mb
20260504050512 42 249 0.0 0.0 0.00 0.02 0.01 94 1008.2
20260504050012 42 237 0.0 0.0 0.00 0.02 0.01 94 1008.1
20260504045511 42 187 0.0 0.0 0.00 0.02 0.01 94 1008.2
20260504045016 42 272 0.0 0.0 0.00 0.02 0.01 94 1008.2
20260504044510 41 228 0.0 0.0 0.00 0.02 0.01 94 1008.3
20260504044015 41 256 0.0 0.0 0.00 0.02 0.01 94 1008.4
20260504043513 41 256 0.0 0.0 0.00 0.02 0.01 94 1008.4
20260504043013 41 264 0.0 0.0 0.00 0.02 0.01 93 1008.5
20260504042512 41 264 0.0 0.0 0.00 0.02 0.01 93 1008.5
20260504042012 41 229 0.0 0.0 0.00 0.01 0.00 93 1008.5
20260504041511 41 194 0.0 0.0 0.00 0.01 0.00 93 1008.6
20260504041010 41 199 0.0 0.0 0.00 0.01 0.00 93 1008.6
20260504040510 41 199 0.0 0.0 0.00 0.01 0.00 92 1008.6
20260504040015 41 190 0.0 0.0 0.00 0.01 0.00 92 1008.6
20260504035514 41 165 0.0 0.0 0.00 0.01 0.01 92 1008.7
20260504034512 41 216 0.0 0.0 0.00 0.01 0.01 91 1008.8
20260504034011 41 194 0.0 1.0 0.00 0.01 0.01 90 1008.9
20260504033515 41 181 0.0 0.0 0.00 0.01 0.01 90 1008.9
20260504033015 41 181 0.0 0.0 0.00 0.01 0.01 90 1008.9
20260504032514 41 192 0.0 0.0 0.00 0.01 0.01 89 1008.9
20260504032013 41 192 0.0 0.0 0.00 0.00 0.00 88 1009.0
20260504031513 41 179 0.0 0.0 0.00 0.00 0.00 87 1009.0
20260504031012 41 148 0.0 0.0 0.00 0.00 0.00 86 1009.0
20260504030511 42 221 0.0 0.0 0.00 0.00 0.00 85 1009.1
20260504030011 42 196 0.0 3.0 0.00 0.00 0.00 84 1009.2
20260504025510 42 240 0.0 0.0 0.00 0.00 0.00 83 1009.3
20260504025015 43 240 0.0 0.0 0.00 0.00 0.00 81 1009.3
20260504024515 43 245 0.0 3.0 0.00 0.00 0.00 78 1009.4
20260504024014 43 0 0.0 4.0 0.00 0.00 0.00 77 1009.4
20260504023512 44 251 0.0 3.0 0.00 0.00 0.00 74 1009.4
20260504023011 44 234 0.0 1.0 0.00 0.00 0.00 73 1009.4
20260504022510 44 174 0.0 1.0 0.00 0.00 0.00 71 1009.4
20260504022010 44 242 0.0 0.0 0.00 0.00 0.00 70 1009.4
20260504021515 44 248 0.0 1.0 0.00 0.00 0.00 69 1009.5
20260504021015 44 288 0.0 2.0 0.00 0.00 0.00 68 1009.4
20260504020514 44 195 0.0 4.0 0.00 0.00 0.00 66 1009.5
20260504015512 45 209 0.0 2.0 0.00 0.00 0.00 62 1009.3
20260504015011 44 242 0.0 0.0 0.00 0.00 0.00 61 1009.3
20260504014510 44 240 1.0 10.0 0.00 0.00 0.00 61 1009.2
20260504014016 44 202 0.0 0.0 0.00 0.00 0.00 60 1009.3
20260504013514 44 220 0.0 0.0 0.00 0.00 0.00 61 1009.3
20260504013013 44 242 0.0 0.0 0.00 0.00 0.00 59 1009.2
20260504012512 44 235 0.0 1.0 0.00 0.00 0.00 58 1009.2
20260504012012 44 223 0.0 1.0 0.00 0.00 0.00 58 1009.2
20260504011511 44 180 0.0 0.0 0.00 0.00 0.00 57 1009.2
20260504011010 44 169 0.0 0.0 0.00 0.00 0.00 57 1009.3
20260504010510 44 230 0.0 0.0 0.00 0.00 0.00 56 1009.3
20260504010009 44 232 0.0 0.0 0.00 0.00 0.00 55 1009.3
20260504005013 44 239 0.0 0.0 0.00 0.00 0.00 55 1009.2
20260504004512 44 259 0.0 1.0 0.00 0.00 0.00 55 1009.2
20260504004011 44 227 0.0 0.0 0.00 0.00 0.00 54 1009.3
20260504003547 44 227 0.0 0.0 0.00 0.00 0.00 53 1009.3
20260504003015 44 221 0.0 0.0 0.00 0.00 0.00 54 1009.3
20260504001516 44 242 0.0 0.0 0.00 0.00 0.00 54 1009.3
20260504000011 44 264 0.0 0.0 0.00 0.00 0.00 51 1009.3
20260503235511 45 225 0.0 0.0 0.00 0.00 0.00 50 1009.3
20260503235010 45 245 0.0 0.0 0.00 0.00 0.00 48 1009.3
20260503234515 45 224 0.0 0.0 0.00 0.00 0.00 48 1009.2
20260503234015 45 244 0.0 0.0 0.00 0.00 0.00 48 1009.2
20260503233514 45 229 0.0 3.0 0.00 0.00 0.00 46 1009.2
20260503232516 46 252 0.0 0.0 0.00 0.00 0.00 45 1009.2
20260503232015 46 283 0.0 2.0 0.00 0.00 0.00 43 1009.2
20260503231013 46 265 0.0 0.0 0.00 0.00 0.00 43 1009.1
20260503230513 47 227 0.0 2.0 0.00 0.00 0.00 45 1009.1
20260503230012 47 298 0.0 0.0 0.00 0.00 0.00 43 1009.0
20260503225511 47 246 0.0 0.0 0.00 0.00 0.00 43 1009.0
20260503224515 48 228 0.0 6.0 0.00 0.00 0.00 42 1008.9
20260503224014 48 270 0.0 1.0 0.00 0.00 0.00 42 1008.9
20260503223513 48 246 0.0 3.0 0.00 0.00 0.00 40 1008.9
20260503223010 48 288 0.0 0.0 0.00 0.00 0.00 42 1008.9
20260503222510 48 271 3.0 10.0 0.00 0.00 0.00 40 1008.9
20260503222015 48 242 0.0 0.0 0.00 0.00 0.00 38 1008.9
20260503221515 49 253 0.0 1.0 0.00 0.00 0.00 41 1008.9
20260503221014 49 257 0.0 1.0 0.00 0.00 0.00 39 1008.9
20260503220513 49 263 0.0 1.0 0.00 0.00 0.00 40 1008.8
20260503220013 49 246 1.0 2.0 0.00 0.00 0.00 39 1008.8
20260503215512 49 273 1.0 8.0 0.00 0.00 0.00 39 1008.9
20260503215012 49 290 1.0 3.0 0.00 0.00 0.00 38 1008.9
20260503213513 50 296 0.0 2.0 0.00 0.00 0.00 39 1008.8
20260503213011 50 307 3.0 10.0 0.00 0.00 0.00 39 1008.9
20260503212510 50 263 4.0 12.0 0.00 0.00 0.00 37 1008.9
20260503212010 49 266 11.0 16.0 0.00 0.00 0.00 40 1008.9
20260503211515 49 267 5.0 12.0 0.00 0.00 0.00 41 1008.8
20260503211014 48 238 0.0 1.0 0.00 0.00 0.00 44 1008.7
20260503210514 48 260 2.0 12.0 0.00 0.00 0.00 42 1008.8
20260503210013 49 249 1.0 9.0 0.00 0.00 0.00 43 1008.9
20260503205512 49 257 0.0 0.0 0.00 0.00 0.00 43 1008.9
20260503205012 48 274 0.0 2.0 0.00 0.00 0.00 42 1008.9
20260503204511 48 298 0.0 2.0 0.00 0.00 0.00 43 1008.8
20260503204011 48 271 0.0 0.0 0.00 0.00 0.00 42 1008.9
20260503203510 49 244 0.0 3.0 0.00 0.01 0.00 41 1009.0
20260503202512 48 271 5.0 10.0 0.00 0.01 0.00 44 1008.9
20260503202011 48 236 0.0 0.0 0.00 0.01 0.00 44 1009.0
20260503201510 47 249 0.0 0.0 0.00 0.01 0.00 46 1009.1
20260503200514 48 290 1.0 8.0 0.00 0.01 0.00 43 1009.1
20260503200013 47 264 0.0 3.0 0.00 0.01 0.00 46 1009.1
20260503195513 47 273 0.0 0.0 0.00 0.01 0.00 47 1009.2
20260503195012 47 258 0.0 0.0 0.00 0.01 0.00 44 1009.3
20260503194512 47 254 0.0 1.0 0.00 0.01 0.00 43 1009.4
20260503194011 47 301 0.0 0.0 0.00 0.01 0.00 43 1009.5
20260503193012 48 284 0.0 0.0 0.00 0.01 0.00 45 1009.5
20260503192512 48 250 0.0 2.0 0.00 0.01 0.00 47 1009.6
20260503192011 48 265 0.0 2.0 0.00 0.01 0.00 45 1009.5
20260503191511 48 213 0.0 0.0 0.00 0.01 0.00 46 1009.5
20260503191010 47 269 0.0 0.0 0.00 0.01 0.00 46 1009.7
20260503190516 46 261 3.0 13.0 0.00 0.01 0.00 44 1009.8
20260503190015 46 291 2.0 9.0 0.00 0.01 0.00 46 1009.8
20260503185515 46 303 0.0 0.0 0.00 0.01 0.00 45 1009.8
20260503185014 46 281 1.0 5.0 0.00 0.01 0.00 45 1009.9
20260503184513 46 292 1.0 9.0 0.00 0.01 0.00 44 1009.8
20260503184013 47 294 1.0 6.0 0.00 0.01 0.00 45 1009.8
20260503182012 47 280 0.0 2.0 0.00 0.02 0.00 45 1010.0
20260503181010 47 305 0.0 0.0 0.00 0.02 0.00 45 1010.0
20260503180014 46 292 1.0 9.0 0.00 0.02 0.00 46 1010.1
20260503175513 46 261 0.0 1.0 0.00 0.02 0.00 46 1010.1
20260503175012 46 262 2.0 10.0 0.00 0.02 0.00 46 1010.1
20260503174512 46 254 1.0 7.0 0.00 0.02 0.00 46 1010.1
20260503174011 46 301 1.0 3.0 0.00 0.02 0.00 48 1010.1
20260503173511 46 299 0.0 3.0 0.00 0.02 0.00 46 1010.2
20260503173015 45 289 1.0 9.0 0.00 0.02 0.00 47 1010.4
20260503172013 46 250 0.0 1.0 0.00 0.02 0.00 49 1010.3
20260503171512 46 273 0.0 1.0 0.00 0.02 0.00 48 1010.4
20260503171011 46 282 1.0 7.0 0.00 0.02 0.00 50 1010.3
20260503170511 45 281 0.0 1.0 0.00 0.02 0.00 50 1010.3
20260503151013 43 324 0.0 0.0 0.00 0.02 0.00 57 1011.4
20260503131012 40 280 0.0 0.0 0.00 0.02 0.00 74 1012.0
20260503110515 35 286 0.0 1.0 0.00 0.02 0.00 90 1011.7
20260503090513 35 290 0.0 0.0 0.00 0.03 0.00 89 1011.5
20260503081512 35 321 0.0 0.0 0.00 0.03 0.00 90 1011.8
20260503081011 35 265 0.0 0.0 0.00 0.03 0.00 90 1011.8
20260503080510 35 277 0.0 0.0 0.00 0.03 0.00 90 1011.8
20260503072513 35 277 0.0 0.0 0.00 0.04 0.00 90 1011.9
20260503072012 35 277 0.0 0.0 0.00 0.04 0.00 89 1011.8
20260503071512 35 277 0.0 0.0 0.00 0.04 0.00 89 1012.0
20260503071011 35 277 0.0 0.0 0.00 0.04 0.00 89 1011.9
20260503070511 35 277 0.0 0.0 0.00 0.04 0.00 89 1011.9